Regional Weather Roundup
Issued by NWS Raleigh/Durham, NC

Home | Current Version | Previous Version | Text Only | Print | Product List | Glossary On
Versions: 1 2 3 4 5 6 7 8 9 10 11 12 13 14 15 16 17 18 19 20 21 22 23 24 25 26 27 28 29 30 31 32 33 34 35 36 37 38 39 40 41 42 43 44 45 46 47 48 49 50
000
ASUS42 KRAH 301310
RWRRAH
NORTH CAROLINA WEATHER ROUNDUP
NATIONAL WEATHER SERVICE RALEIGH NC
900 AM EDT WED JUL 30 2014

NOTE: "FAIR" INDICATES FEW OR NO CLOUDS BELOW 12,000 FEET WITH NO
SIGNIFICANT WEATHER AND/OR OBSTRUCTIONS TO VISIBILITY.

NCZ001-053-055-056-065-067-301400-
WESTERN NORTH CAROLINA

CITY           SKY/WX    TMP DP  RH WIND       PRES   REMARKS
ASHEVILLE      MOSUNNY   61  50  67 N9        30.15R
JEFFERSON      MOSUNNY   56  49  76 CALM      30.17R
MORGANTON      SUNNY     63  55  76 CALM      30.17R
HICKORY        SUNNY     64  56  75 CALM      30.11R
RUTHERFORDTON  SUNNY     66  55  67 NW3       30.12R
MOUNT AIRY     MOSUNNY   67  56  67 CALM      30.11R
BOONE          SUNNY     57  47  70 NW5       30.17S
$$

NCZ021-022-025-041-071-084-088-301400-
CENTRAL NORTH CAROLINA

CITY           SKY/WX    TMP DP  RH WIND       PRES   REMARKS
CHARLOTTE      MOSUNNY   68  55  63 N10       30.09R
GREENSBORO     PTSUNNY   66  59  78 N8        30.10R
WINSTON-SALEM  MOSUNNY   66  55  67 N8        30.12R
RALEIGH-DURHAM PTSUNNY   69  61  75 E6        30.08S
FORT BRAGG     CLOUDY    70  64  80 NE5       30.05S
FAYETTEVILLE   PTSUNNY   73  65  75 NE6       30.05R
BURLINGTON     MOSUNNY   68  60  75 NE6       30.10R
LAURINBURG     MOSUNNY   72  64  76 NE7       30.06R
$$

NCZ011-015-027-028-043-044-047-080-103-301400-
NORTHEASTERN NORTH CAROLINA

CITY           SKY/WX    TMP DP  RH WIND       PRES   REMARKS
ROCKY MT-WILSO SUNNY     70  59  68 NE9       30.08R
GREENVILLE     SUNNY     72  64  78 NE5       30.08S
WASHINGTON     SUNNY     69  64  85 NE3       30.07R
ELIZABETH CITY SUNNY     73  62  68 N7        30.07R
MANTEO         NOT AVBL
CAPE HATTERAS  SUNNY     78  62  57 NE8       30.04R
$$

NCZ078-087-090-091-093-098-101-301400-
SOUTHEASTERN NORTH CAROLINA

CITY           SKY/WX    TMP DP  RH WIND       PRES   REMARKS
LUMBERTON      SUNNY     72  66  81 N6        30.04R
GOLDSBORO      SUNNY     71  69  93 NE5       30.05R
KINSTON        SUNNY     72  66  83 NE6       30.07R
KENANSVILLE    SUNNY     71  66  84 NE3       30.06R
NEW BERN       SUNNY     77  65  66 NE8       30.06R
CHERRY POINT   SUNNY     77  65  66 NE12      30.04S
BEAUFORT       SUNNY     79  66  64 NE6       30.04R
JACKSONVILLE   SUNNY     75  68  78 E6        30.04R
WILMINGTON     SUNNY     77  70  79 NE7       30.02S
$$



USA.gov is the U.S. government's official web portal to all federal, state and local government web resources and services.